Location: ?????????
(54.7630°N, 39.4991°E)
Time: 21:07:17
(UTC+00:00)

Cosmos 2237 Rocket - Pass Details

Date: 14 April 2026
Orbit: 833 x 850 km, 71.0° (Epoch: 16 May)

Event Time Altitude Azimuth Distance (km) Brightness Sun altitude
Rises 19:58:46 0° 238° (WSW) 3,401 5.3 -23.3°
Reaches altitude 10° 20:01:20 10° 245° (WSW) 2,471 4.6 -23.4°
Maximum altitude 20:06:43 43° 316° (NW) 1,191 3.4 -23.7°
Drops below altitude 10° 20:12:09 10° 27° (NNE) 2,489 5.2 -23.9°
Sets 20:14:45 0° 35° (NE) 3,428 5.9 -24.0°
